Tracking 35331 objects as of 14-Sep-2026
HD Live streaming from Space Station
objects crossing your sky now

THORAD DELTA 1 DEB

Track THORAD DELTA 1 DEB now!
10-day predictions


NORAD ID: 8401
Int'l Code: 1974-089CD
Launch date: November 15, 1974
Source: United States (US)
Launch site: AIR FORCE WESTERN TEST RANGE (AFWTR)

Note: This is SATELLITE DEBRIS
Your satellite tracking list
Your tracking list is empty




NASA's NSSDC Master Catalog

Two Line Element Set (TLE):
1 08401U 74089CD  26256.66972174 -.00000062  00000-0 -89182-4 0  9996
2 08401 101.4055 331.4204 0067607 239.4609 278.9702 12.67233992396497
Source of the keplerian elements: AFSPC